Regional Weather Roundup
Issued by NWS Sioux Falls, SD

Home | Current Version | Previous Version | Text Only | Print | Product List | Glossary On
Versions: 1 2 3 4 5 6 7 8 9 10 11 12 13 14 15 16 17 18 19 20 21 22 23 24 25 26 27 28 29 30 31 32 33 34 35 36 37 38 39 40 41 42 43 44 45 46 47 48 49 50
000
ASUS43 KFSD 010310
RWRFSD

WEATHER ROUNDUP FOR SE SOUTH DAKOTA/SW MINNESOTA/NW IOWA
NATIONAL WEATHER SERVICE SIOUX FALLS SD
1000 PM CDT THU JUL 31 2014

NOTE: "FAIR" INDICATES FEW OR NO CLOUDS BELOW 12,000 FEET WITH NO
SIGNIFICANT WEATHER AND OR OBSTRUCTIONS TO VISIBILITY.


SDZ038>040-050-052>070-010400-
SOUTHEAST SOUTH DAKOTA

CITY           SKY/WX    TMP DP  RH WIND       PRES   REMARKS
CHAMBERLAIN    CLEAR     69  57  65 E5        30.05R
HURON          CLEAR     69  58  67 E3        30.04R
MADISON        FAIR      61  61 100 N3        30.06S
MITCHELL       CLEAR     68  62  81 E7        30.04R
SIOUX FALLS    CLEAR     63  60  90 CALM      30.05R
WINNER         FAIR      71  56  58 SE7       30.05R
YANKTON        CLEAR     64  61  88 CALM      30.05R
$$

MNZ071-072-080-081-089-090-097-098-010400-
SOUTHWEST MINNESOTA

CITY           SKY/WX    TMP DP  RH WIND       PRES   REMARKS
FAIRMONT       MOCLDY    68  57  68 W6        30.05R
JACKSON        PTCLDY    66  61  82 CALM      30.07R
LUVERNE        CLEAR     66  61  82 CALM      30.06R
MARSHALL       CLEAR     70  57  64 CALM      30.04
MONTEVIDEO     CLEAR     68  55  64 CALM      30.04R
PIPESTONE      CLEAR     68  57  68 CALM      30.06S
REDWOOD FALLS  CLEAR     72  57  59 W3        30.03R
TRACY          CLEAR     68  58  71 CALM      30.05R
WINDOM         CLEAR     64  61  88 CALM      30.06R
WORTHINGTON    CLEAR     66  61  82 CALM      30.08R
$$

IAZ001>003-012>014-020>022-031-032-NEZ013-014-SDZ071-010400-
NORTHWEST IOWA

CITY           SKY/WX    TMP DP  RH WIND       PRES   REMARKS
CHEROKEE       PTCLDY    63  61  94 E5        30.05R
DENISON        PTCLDY    63  63 100 CALM      30.03R
ESTHERVILLE    PTCLDY    64  61  90 SW5       30.05R
LE MARS        PTCLDY    64  61  88 CALM      30.05R
ORANGE CITY    PTCLDY    68  57  68 CALM      30.06R
SHELDON        PTCLDY    63  59  88 CALM      30.05R
SIOUX CITY     CLEAR     63  60  90 CALM      30.04S
SPENCER        PTCLDY    66  58  75 E3        30.06R
STORM LAKE     PTCLDY    63  61  94 CALM      30.07R
$$

ABBREVIATIONS USED IN REMARKS
   TC - TEMPERATURE IN CELSIUS
  WCI - WIND CHILL INDEX
   HX - HEAT INDEX
  VSB - VISIBILITY




USA.gov is the U.S. government's official web portal to all federal, state and local government web resources and services.